Create Custom Reports and Graphics: Custom Report

Smith Lane (Kelseyville-South)

Current Conditions

5/19/24 7:00 AM (-07:00)
Updated Every 15 Minutes
Temp 49.4 °F   7.1
Daily Min Temp 42.0 °F   8.2
Time of Min Temp 0616
Daily Max Temp 52.9 °F   4.0
Time of Max Temp 0101
Wind Dir N | 0 °
Wind Spd 0.0 mph   0.1
Wind Gust 0.0 mph   2.1
Daily Max Wind 4.9 mph   2.2
Time of Max Wind 0101
Max Wind Dir ESE | 105 °
Leaf Wet 0.0 mins
Daily Leaf Wet 0.0 Hrs   3.8
Latest Rain 0.00 In
Daily Rain 0.00 In
Yest MinT 50.1 °F
Yest MaxT 82.7 °F
Yest MaxGst 17.7 mph
Yest Leaf Wet 4.3 Hrs
Yest Precip 0.00 In
Month Precip 0.80 In
Season Precip 30.62 In
BatVolt 13.0 V   0.0
MinBV Day 12.7 V   0.0

Last 48 Hours

Smith Lane (Kelseyville-South)

Hourly Data | America/Los_Angeles
as of 5/19/24 7:07 AM PDT
Date & Time Temp (°F) WindChill (°F) RH (%) Dew Pt (°F) Wet Bulb (°F) Wind Dir (°) Wind Spd (mph) Wind Gust (mph) Wind Gst Dir (°) Leaf Wet (mins) Latest Rain (In) Daily Rain (In) Daily Min Temp (°F) Daily Max Temp (°F) Daily Leaf Wet (Hrs)
5/19/24 - 0700 44.2 - 73 41.3 45.8 ESE | 110 0.0 1.5 ESE | 110 0.0 0.00 0.00 42.0 52.9 0.0
5/19/24 - 0600 42.7 - 89 39.5 41.3 ESE | 109 0.5 3.2 ESE | 122 0.0 0.00 0.00 42.4 52.9 0.0
5/19/24 - 0500 44.6 - 89 40.4 42.3 SE | 137 0.5 2.6 SE | 135 0.0 0.00 0.00 43.5 52.9 0.0
5/19/24 - 0400 45.9 44.7 85 41.1 43.6 SE | 134 2.3 4.3 SE | 129 0.0 0.00 0.00 45.3 52.9 0.0
5/19/24 - 0300 47.5 46.3 82 41.6 44.7 SSE | 147 2.8 4.3 SSE | 161 0.0 0.00 0.00 47.0 52.9 0.0
5/19/24 - 0200 50.0 - 79 42.4 45.9 ESE | 116 2.5 4.9 ESE | 105 0.0 0.00 0.00 48.5 52.9 0.0
5/19/24 - 0100 55.4 - 70 43.3 48.4 S | 171 3.4 7.1 SSW | 210 0.0 0.00 0.00 50.1 82.7 4.3
5/19/24 - 0000 57.2 - 63 43.9 50.1 S | 183 3.5 7.1 SSE | 167 0.0 0.00 0.00 50.1 82.7 4.3
5/18/24 - 2300 58.5 - 61 44.0 50.6 S | 179 3.3 6.5 SSW | 200 0.0 0.00 0.00 50.1 82.7 4.3
5/18/24 - 2200 60.8 - 55 43.4 51.2 SSE | 167 3.7 6.0 SE | 140 0.0 0.00 0.00 50.1 82.7 4.3
5/18/24 - 2100 65.5 - 52 44.2 52.6 S | 185 3.4 7.1 SSW | 200 0.0 0.00 0.00 50.1 82.7 4.3
5/18/24 - 2000 71.6 - 41 44.6 55.1 SSW | 211 5.6 12.1 SSW | 207 0.0 0.00 0.00 50.1 82.7 4.3
5/18/24 - 1900 75.0 - 38 46.6 57.4 SW | 227 8.4 15.5 SW | 231 0.0 0.00 0.00 50.1 82.7 4.3
5/18/24 - 1800 77.6 - 36 47.7 58.7 SW | 229 8.3 16.0 SSW | 204 0.0 0.00 0.00 50.1 82.7 4.3
5/18/24 - 1700 79.6 - 39 51.6 61.3 SW | 236 8.3 14.4 SW | 222 0.0 0.00 0.00 50.1 82.7 4.3
5/18/24 - 1600 80.6 - 45 56.0 63.9 SW | 235 8.8 17.7 SW | 215 0.0 0.00 0.00 50.1 82.7 4.3
5/18/24 - 1500 80.6 - 40 54.4 63.2 SW | 234 8.9 16.0 WSW | 241 0.0 0.00 0.00 50.1 82.7 4.3
5/18/24 - 1400 80.2 - 45 56.8 64.5 SW | 227 9.1 16.0 WSW | 242 0.0 0.00 0.00 50.1 82.7 4.3
5/18/24 - 1300 81.5 - 44 57.0 64.8 NNW | 336 4.3 12.7 WSW | 249 0.0 0.00 0.00 50.1 82.7 4.3
5/18/24 - 1200 78.6 - 44 56.3 64.3 NNE | 15 3.5 7.1 N | 6 0.0 0.00 0.00 50.1 80.4 4.3
5/18/24 - 1100 75.8 - 54 59.3 65.7 N | 5 3.0 9.9 NNW | 334 0.0 0.00 0.00 50.1 77.4 4.3
5/18/24 - 1000 72.4 - 56 57.9 64.3 N | 11 1.5 6.0 NNE | 22 0.0 0.00 0.00 50.1 74.8 4.3
5/18/24 - 0900 69.2 - 62 57.2 62.9 NNE | 30 0.3 4.3 NE | 40 0.0 0.00 0.00 50.1 71.1 4.3
5/18/24 - 0800 62.6 - 68 55.1 60.2 W | 278 0.0 1.5 NW | 309 28.4 0.00 0.00 50.1 66.1 4.3
5/18/24 - 0700 52.3 - 90 53.8 56.0 SE | 143 0.7 2.6 SE | 124 60.0 0.00 0.00 50.1 56.9 3.8
5/18/24 - 0600 51.0 - 96 49.2 50.6 N | 0 0.0 0.0 S | 171 60.0 0.00 0.00 50.4 56.9 2.8
5/18/24 - 0500 52.0 - 95 50.4 51.9 SE | 139 0.7 2.6 SE | 131 60.0 0.00 0.00 51.8 56.9 1.8
5/18/24 - 0400 53.2 - 96 51.0 52.5 S | 170 0.3 2.6 SSE | 166 49.4 0.00 0.00 52.2 56.9 0.8
5/18/24 - 0300 55.0 - 94 52.3 54.1 N | 0 0.0 0.0 SE | 138 0.0 0.00 0.00 54.0 56.9 0.0
5/18/24 - 0200 56.4 - 93 53.6 55.6 N | 0 0.0 0.0 SSE | 147 0.0 0.00 0.00 55.6 56.9 0.0
5/18/24 - 0100 58.0 - 91 54.4 56.6 SE | 134 0.1 2.1 SE | 125 0.0 0.00 0.00 48.6 86.4 5.7
5/18/24 - 0000 60.2 - 87 55.4 58.1 SE | 142 0.4 2.6 SSE | 160 0.0 0.00 0.00 48.6 86.4 5.7
5/17/24 - 2300 63.5 - 82 56.3 59.6 SE | 140 1.9 4.3 SE | 137 0.0 0.00 0.00 48.6 86.4 5.7
5/17/24 - 2200 66.9 - 69 55.0 59.9 S | 173 2.5 4.3 S | 178 0.0 0.00 0.00 48.6 86.4 5.7
5/17/24 - 2100 71.4 - 67 57.4 62.6 SSW | 200 3.8 8.2 SSW | 207 0.0 0.00 0.00 48.6 86.4 5.7
5/17/24 - 2000 77.1 - 59 58.4 64.4 SSW | 209 4.0 8.2 SSW | 193 0.0 0.00 0.00 48.6 86.4 5.7
5/17/24 - 1900 80.7 - 50 58.7 65.7 SW | 224 5.7 11.0 W | 273 0.0 0.00 0.00 48.6 86.4 5.7
5/17/24 - 1800 83.2 - 44 58.4 65.9 SW | 217 7.2 12.7 SW | 219 0.0 0.00 0.00 48.6 86.4 5.7
5/17/24 - 1700 84.3 - 41 58.0 65.9 SW | 224 7.4 13.8 WSW | 245 0.0 0.00 0.00 48.6 86.4 5.7
5/17/24 - 1600 85.2 - 38 55.7 64.6 WSW | 240 7.0 14.4 SW | 217 0.0 0.00 0.00 48.6 86.4 5.7
5/17/24 - 1500 85.7 - 33 54.2 64.0 NNE | 18 3.7 9.3 NNE | 21 0.0 0.00 0.00 48.6 86.3 5.7
5/17/24 - 1400 83.8 - 31 51.5 62.5 N | 3 3.1 8.8 NNE | 15 0.0 0.00 0.00 48.6 85.8 5.7
5/17/24 - 1300 81.1 - 40 55.2 63.9 NNE | 19 3.3 8.2 NNE | 19 0.0 0.00 0.00 48.6 82.3 5.7
5/17/24 - 1200 77.4 - 49 58.6 65.6 NNE | 13 2.9 7.1 NNE | 20 0.0 0.00 0.00 48.6 79.8 5.7
5/17/24 - 1100 73.9 - 53 57.4 64.1 N | 7 3.1 7.1 NNE | 32 0.0 0.00 0.00 48.6 75.7 5.7
5/17/24 - 1000 70.4 - 62 58.6 64.2 NNE | 13 1.6 5.4 ENE | 58 0.0 0.00 0.00 48.6 72.4 5.7
5/17/24 - 0900 66.5 - 67 57.0 62.1 NNE | 26 0.5 4.3 N | 9 0.0 0.00 0.00 48.6 68.4 5.7
5/17/24 - 0800 59.4 - 72 54.6 59.1 N | 0 0.0 0.0 SE | 127 40.8 0.00 0.00 48.6 63.6 5.7
5/17/24 - 0700 50.9 - 88 51.9 54.3 N | 0 0.0 0.0 S | 169 60.0 0.00 0.00 48.6 55.2 5.0
Max 85.7 46.3 96 59.3 65.9 - 9.1 17.7 - 60.0 0.00 0.00 55.6 86.4 5.7
Avg 66.5 45.5 63 51.9 57.7 - 3.2 7.0 - 7.3 0.00 - - - -
Min 42.7 44.7 31 39.5 41.3 - 0.0 0.0 - 0.0 0.00 0.00 42.0 52.9 0.0
Total - - - - - - - - - - 0.00 - - - -

Last 30 Days

Smith Lane (Kelseyville-South)

Daily Data | America/Los_Angeles
as of 5/19/24 7:07 AM PDT
Date Daily Max Temp (°F) Time of Max Temp Daily Min Temp (°F) Time of Min Temp Daily Rain (In) Month Precip (In) Season Precip (In) Wind Spd (mph) Daily Max Wind (mph) Time of Max Wind Max Wind Dir (°) Dew Pt (°F) Daily Leaf Wet (Hrs) Hrs 70-85F (hrs) Hrs > 95F (hrs) Powdery Mildew Stress (pts) GDDs (DL) GDDs (Mx/Mn) Seas GDDs (DL) Seas GDDs (Smpl) Hrs <= 32F (hrs) Hrs <= 28F (hrs) Chilling <=45F (hrs) Chill Hrs 32-45F (hrs) Utah Chilling (Units) Chill Portions Degree Hrs (hrs) Max 1 Min Rain (In) Max 1 Min Rain Time Max 15 Min Rain (In) Max 15 Min Precip Time Max 60 Min Rain (In) Max 60 Min Rain Time MinBV Day (V)
5/18/24 82.7 1245 50.1 0608 0.00 0.80 30.62 3.7 17.7 1548 SW | 215 43.3 4.3 11.25 0.00 40 16.8 16.4 440 353 0.0 0.0 0.0 0.0 -12.0 - 143.3 - - - - - - 12.7
5/17/24 86.4 1508 48.6 0610 0.00 0.80 30.62 2.5 14.4 1540 SW | 217 54.4 5.7 5.19 0.00 20 18.2 17.5 424 336 0.0 0.0 0.0 0.0 -12.0 - 177.6 - - - - - - 12.7
5/16/24 84.1 1235 49.3 0547 0.00 0.80 30.62 3.2 15.5 1401 SW | 223 52.0 0.4 11.25 0.00 30 17.6 16.7 405 319 0.0 0.0 0.0 0.0 -12.0 - 161.1 - - - - - - 12.7
5/15/24 91.6 1506 48.2 0609 0.00 0.80 30.62 2.8 15.5 1652 WSW | 249 50.3 0.0 3.92 0.00 10 20.8 19.9 388 302 0.0 0.0 0.0 0.0 -12.5 - 236.5 - - - - - - 12.7
5/14/24 88.3 1455 46.4 0607 0.00 0.80 30.62 2.4 13.8 1437 S | 191 50.2 0.0 3.75 0.00 20 18.8 17.3 367 282 0.0 0.0 0.0 0.0 -11.0 - 200.2 - - - - - - 12.7
5/13/24 86.1 1524 41.6 0618 0.00 0.80 30.62 2.6 18.3 1426 WSW | 247 50.0 0.0 4.93 0.00 30 16.9 13.9 348 265 0.0 0.0 3.0 3.0 -8.0 - 167.8 - - - - - - 12.7
5/12/24 85.8 1440 44.5 0605 0.00 0.80 30.62 2.6 20.0 1245 NNW | 333 43.2 0.0 5.34 0.00 40 16.9 15.2 332 251 0.0 0.0 0.9 0.9 -7.0 - 179.4 - - - - - - 12.7
5/11/24 90.7 1650 44.4 0621 0.00 0.80 30.62 2.2 17.7 1705 WSW | 254 46.6 0.0 3.73 0.00 50 18.4 17.5 315 236 0.0 0.0 0.9 0.9 -8.5 - 205.4 - - - - - - 12.7
5/10/24 86.4 1806 42.9 0527 0.00 0.80 30.62 2.2 15.5 1203 ENE | 60 45.3 0.0 7.44 0.00 60 16.9 14.6 296 218 0.0 0.0 3.4 3.4 -6.0 - 182.1 - - - - - - 12.7
5/9/24 79.3 1748 47.8 0038 0.00 0.80 30.62 6.1 27.2 0928 NE | 48 42.9 0.0 9.11 0.00 40 16.6 13.6 279 204 0.0 0.0 0.0 0.0 -14.5 - 108.5 - - - - - - 12.7
5/8/24 77.2 1449 35.6 0620 0.00 0.80 30.62 4.2 26.1 2303 NNE | 12 28.2 6.2 7.95 0.00 20 13.5 6.4 263 190 0.0 0.0 6.4 6.4 -7.5 - 84.2 - - - - - - 12.6
5/7/24 72.5 1800 35.4 0618 0.00 0.80 30.62 2.2 11.6 1218 NNE | 28 41.8 6.1 2.87 0.00 0 7.2 4.0 249 184 0.0 0.0 7.2 7.2 3.0 - 25.3 - - - - - - 12.7
5/6/24 65.5 1610 34.0 0611 0.00 0.80 30.62 4.0 18.8 1854 NW | 315 37.9 6.6 0.00 0.00 0 4.9 0.0 242 180 0.0 0.0 8.1 8.1 6.5 - 0.0 - - - - - - 12.7
5/5/24 59.5 1619 34.2 0640 0.00 0.80 30.62 4.6 18.8 1150 WNW | 292 36.3 0.5 0.00 0.00 0 2.2 0.0 237 180 0.0 0.0 10.6 10.6 14.5 - 0.0 - - - - - - 12.6
5/4/24 53.7 0121 39.9 0059 0.80 0.80 30.62 6.4 28.4 1441 WNW | 289 35.1 10.3 0.00 0.00 10 0.6 0.0 235 180 0.0 0.0 10.5 10.5 20.0 - 0.0 0.01 1720 0.06 0714 0.16 0736 12.6
5/3/24 74.9 1458 40.0 0616 0.00 0.00 29.82 4.2 18.3 1430 W | 266 48.7 2.1 6.03 0.00 20 9.9 7.5 234 180 0.0 0.0 3.4 3.4 -2.0 - 50.7 - - - - - - 12.7
5/2/24 71.5 1429 40.6 0554 0.00 0.00 29.82 6.0 23.9 1647 NNW | 336 45.9 0.0 2.49 0.00 0 9.8 6.0 224 172 0.0 0.0 5.6 5.6 -3.5 - 32.4 - - - - - - 12.7
5/1/24 74.5 1550 33.8 0511 0.00 0.00 29.82 2.9 15.5 1713 NW | 310 37.0 5.0 3.87 0.00 10 8.2 4.1 215 166 0.0 0.0 7.1 7.1 1.0 - 37.2 - - - - - - 12.6
4/30/24 69.8 1537 34.3 0608 0.00 0.00 29.82 3.5 19.4 1732 NW | 313 36.0 6.0 0.00 0.00 20 5.8 2.1 206 162 0.0 0.0 8.9 8.9 5.0 - 11.8 - - - - - - 12.6
4/29/24 68.9 1459 36.8 0554 0.00 0.65 29.82 5.0 22.2 1255 WSW | 249 37.9 1.2 0.00 0.00 30 6.5 2.8 201 160 0.0 0.0 7.9 7.9 4.5 109 8.3 - - - - - - 12.7
4/28/24 72.0 1452 38.5 0545 0.00 0.65 29.82 5.7 22.2 1829 W | 273 37.6 3.7 2.19 0.00 40 8.2 5.2 194 157 0.0 0.0 5.9 5.9 1.5 109 26.2 - - - - - - 12.7
4/27/24 69.5 1334 34.8 0615 0.00 0.65 29.82 4.0 21.6 1237 SW | 236 42.1 7.0 0.00 0.00 50 6.6 2.2 186 152 0.0 0.0 6.8 6.8 2.5 109 11.4 - - - - - - 12.6
4/26/24 61.8 1307 41.3 0101 0.00 0.65 29.82 7.1 29.5 1704 WNW | 286 39.5 0.0 0.00 0.00 60 4.0 1.6 180 150 0.0 0.0 2.0 2.0 7.0 108 0.0 - - - - - - 12.7
4/25/24 65.9 1456 45.7 0527 0.00 0.65 29.82 5.5 23.9 1809 WNW | 288 43.0 0.0 0.00 0.00 70 4.5 5.8 176 148 0.0 0.0 0.0 0.0 5.5 108 0.0 - - - - - - 12.7
4/24/24 66.2 1618 49.6 0514 0.00 0.65 29.82 4.1 14.4 1604 SSW | 192 46.5 0.0 0.00 0.00 80 6.3 7.9 171 142 0.0 0.0 0.0 0.0 1.5 107 0.0 - - - - - - 12.7
4/23/24 66.4 1404 46.1 0532 0.00 0.65 29.82 5.5 17.7 1635 SSW | 211 43.3 0.0 0.00 0.00 90 5.3 6.3 165 134 0.0 0.0 0.0 0.0 5.0 107 0.0 - - - - - - 12.7
4/22/24 83.3 1600 43.5 0638 0.00 0.65 29.82 3.4 17.7 1816 SW | 219 46.5 4.5 8.40 0.00 100 13.7 13.4 159 128 0.0 0.0 2.2 2.2 -5.5 107 111.3 - - - - - - 12.7
4/21/24 83.2 1757 40.8 0617 0.00 0.65 29.82 2.1 10.5 1315 N | 5 46.1 1.2 8.56 0.00 100 13.5 12.0 146 115 0.0 0.0 4.0 4.0 -4.5 107 115.9 - - - - - - 12.7
4/20/24 77.7 1443 43.1 0629 0.00 0.65 29.82 3.9 15.5 1419 WNW | 283 40.0 0.0 8.79 0.00 100 12.1 10.4 132 103 0.0 0.0 2.2 2.2 -4.0 107 91.9 - - - - - - 12.7
4/19/24 79.5 1511 43.3 0608 0.00 0.65 29.82 3.2 19.4 1642 W | 261 44.6 5.3 8.40 0.00 100 12.5 11.4 120 92 0.0 0.0 3.0 3.0 -3.5 107 93.6 - - - - - - 12.7
Max 91.6 - 50.1 - 0.80 0.80 30.62 7.1 29.5 - - 54.4 10.3 11.25 0.00 - 20.8 19.9 - - 0.0 0.0 10.6 10.6 20.0 109 236.5 - - - - - - 12.7
Avg - - - - - - - 3.9 - - - 43.1 - 4.18 0.00 - 11.1 9.1 - - 0.0 0.0 3.7 3.7 -1.9 108 - - - - - - - -
Min 53.7 - 33.8 - 0.00 0.00 29.82 2.1 10.5 - - 28.2 0.0 0.00 0.00 - 0.6 0.0 - - 0.0 0.0 0.0 0.0 -14.5 107 0.0 - - - - - - 12.6
Total - - - - - - - - - - - - - 125.46 0.00 - 332.8 271.7 - - 0.0 0.0 109.8 109.8 -56.5 - - - - - - - - -